Location: Arpaise
(41.0333°N, 14.7333°E)
Time: 16:31:12
(UTC+00:00)

Cosmos 2344 - Pass Details

Date: 05 July 2020
Orbit: 1249 x 2993 km, 63.3° (Epoch: 10 August)

Event Time Altitude Azimuth Distance (km) Brightness Sun altitude
Exits shadow 22:16:00 26° 223° (SW) 2,241 4.5 -25.3°
Maximum altitude 22:20:35 78° 306° (NW) 1,281 3.6 -25.4°
Drops below altitude 10° 22:28:30 10° 33° (NNE) 3,434 6.4 -25.7°
Sets 22:31:33 0° 35° (NE) 4,551 7.1 -25.8°
